Flag for India Weather past 2 weeks in Virudhunagar, Tamil Nadu, India

Now
84 °F

Partly cloudy.


Feels Like: 92 °F
Forecast: 79 / 97 °F
Wind: 9 mph from West

Location: Tiruchchirapalli

Current Time: Sep 1, 2015 at 10:36:04 PM

Latest Report: Sep 1, 2015 at 9:40 PM


Visibility: 3 mi

Pressure: 29.80 "Hg

Humidity: 74%

Dew point: 75 °F

Location of VirudhunagarLocation

Historic Weather in Virudhunagar — Graph

°F

Virudhunagar temperature yesterday

Maximum temperature yesterday: 102 °F (at 3:40 PM)
Minimum temperature yesterday: 81 °F (at 5:10 AM)
Average temperature yesterday: 90 °F

Past Weeks' High & Low Weather Summary

 TemperatureHumidityPressure
High102 °F (Aug 30, 3:40 PM)94% (Aug 18, 5:40 AM)29.89 "Hg (Aug 18, 5:40 AM)
Low77 °F (Aug 21, 11:40 PM)33% (Aug 28, 2:40 PM)29.62 "Hg (Aug 27, 4:10 PM)
Average87 °F63%29.76 "Hg
* Reported Aug 17 7:40 PM — Sep 1 8:10 PM, Virudhunagar, Weather by CustomWeather, © 2015

Note: Actual official high and low records may vary slightly from our data, if they occured in-between our weather recording intervals... More about our weather records

Advertising

Virudhunagar weather history for previous 24 hours

 ConditionsComfort  
Time TempWeatherWind HumidityBarometerVisibility
8:10 PM
Tue, Sep 1
90 °FPassing clouds.7 mph63%29.74 "Hg4 mi
7:40 PM90 °FPassing clouds.7 mph67%29.71 "Hg4 mi
7:10 PM90 °FPassing clouds.12 mph67%29.68 "Hg4 mi
6:40 PM91 °FScattered clouds.12 mph59%29.68 "Hg4 mi
6:10 PM97 °FScattered clouds.3 mph44%29.65 "Hg4 mi
5:40 PM99 °FScattered clouds.3 mph42%29.65 "Hg4 mi
5:10 PM100 °FPassing clouds.5 mph40%29.65 "Hg5 mi
4:40 PM100 °FPassing clouds.5 mph40%29.65 "Hg5 mi
4:10 PM102 °FPassing clouds.7 mph37%29.65 "Hg5 mi
3:40 PM102 °FPassing clouds.7 mph37%29.65 "Hg5 mi
3:10 PM102 °FPassing clouds.7 mph37%29.65 "Hg5 mi
2:40 PM100 °FPassing clouds.7 mph40%29.65 "Hg5 mi
1:40 PM100 °FPassing clouds.7 mph40%29.71 "Hg5 mi
1:10 PM99 °FPassing clouds.5 mph42%29.71 "Hg5 mi
12:40 PM97 °FPassing clouds.6 mph44%29.74 "Hg4 mi
12:10 PM95 °FPassing clouds.8 mph50%29.74 "Hg4 mi
11:40 AM93 °FPassing clouds.7 mph53%29.77 "Hg4 mi
11:10 AM91 °FPassing clouds.9 mph52%29.77 "Hg4 mi
10:40 AM90 °FPassing clouds.14 mph55%29.80 "Hg4 mi
9:40 AM88 °FHaze.10 mph59%29.80 "Hg3 mi
9:10 AM86 °FHaze.12 mph62%29.80 "Hg3 mi
8:10 AM86 °FScattered clouds.5 mph62%29.80 "Hg3 mi
7:40 AM84 °FScattered clouds.5 mph66%29.77 "Hg3 mi
7:10 AM82 °FScattered clouds.2 mph70%29.77 "Hg3 mi
6:40 AM82 °FScattered clouds.2 mph74%29.77 "Hg3 mi
6:10 AM82 °FPassing clouds.2 mph74%29.77 "Hg3 mi
5:40 AM82 °FPassing clouds.No wind79%29.77 "Hg3 mi
4:40 AM82 °FPassing clouds.No wind74%29.77 "Hg4 mi
4:10 AM82 °FPassing clouds.3 mph74%29.77 "Hg4 mi
3:10 AM82 °FPassing clouds.2 mph74%29.77 "Hg4 mi
2:40 AM82 °FPassing clouds.2 mph79%29.77 "Hg4 mi
1:40 AM84 °FPassing clouds.2 mph74%29.77 "Hg4 mi
1:10 AM86 °FPassing clouds.3 mph70%29.80 "Hg4 mi
12:40 AM86 °FPassing clouds.12 mph75%29.80 "Hg4 mi
12:10 AM86 °FPassing clouds.2 mph75%29.83 "Hg4 mi
11:40 PM
Mon, Aug 31
86 °FPassing clouds.3 mph75%29.83 "Hg4 mi
11:10 PM86 °FPassing clouds.5 mph75%29.83 "Hg4 mi
10:40 PM86 °FPassing clouds.2 mph75%29.83 "Hg4 mi
Weather by CustomWeather, © 2015

See weather overviewHow to use our weather pages